Regional Weather Roundup
Issued by NWS

Home | Current Version | Previous Version | Text Only | Print | Product List | Glossary Off
Versions: 1 2 3 4 5 6 7 8 9 10 11 12 13 14 15 16 17 18 19 20 21 22 23 24 25 26 27

000
ASUS45 KBOI 230510
RWRID
WEATHER ROUNDUP FOR IDAHO
NATIONAL WEATHER SERVICE BOISE ID
1100 PM MDT TUE APR 22 2014

NOTE: "FAIR" INDICATES FEW OR NO CLOUDS BELOW 12000 FEET
WITH NO SIGNIFICANT WEATHER AND/OR OBSTRUCTIONS TO VISIBILITY

IDZ012-014-230600-
SOUTHWEST IDAHO


CITY           SKY/WX    TMP DP  RH WIND       PRES   REMARKS
BOISE          CLEAR     41  33  73 W7        29.89R
CALDWELL       PTCLDY    43  27  52 W10       29.93R
MOUNTAIN HOME  CLOUDY    41  41  99 W15       29.89R
$$

IDZ016-017-230600-
SOUTHCENTRAL IDAHO


CITY           SKY/WX    TMP DP  RH WIND       PRES   REMARKS
BURLEY         LGT RAIN  38  35  89 W20       29.80R WCI  28
JEROME         CLOUDY    37  35  92 SW21G29   29.83R WCI  26
TWIN FALLS     CLOUDY    40  32  73 W23G32    29.85R WCI  30
$$

IDZ019>023-230600-
SOUTHEAST IDAHO


CITY           SKY/WX    TMP DP  RH WIND       PRES   REMARKS
IDAHO FALLS    CLOUDY    40  37  89 SW24G31   29.73R WCI  29
POCATELLO      CLOUDY    41  36  82 SW18      29.79R
REXBURG        LGT RAIN  38  36  92 SW18G33   29.70R WCI  28
$$

IDZ006-010-011-018-031-032-230600-
CENTRAL IDAHO MOUNTAINS


CITY           SKY/WX    TMP DP  RH WIND       PRES   REMARKS
MCCALL         PTCLDY    30  26  85 CALM      29.84R
HAILEY         PTCLDY    36  34  93 CALM      29.73R
STANLEY          N/A     30  28  92 N7        29.78R WCI  23
SALMON         CLOUDY    39  34  81 CALM      29.73R
CHALLIS        CLOUDY    38  30  73 NW10      29.72R WCI  31
$$

IDZ002-004-006-007-026-230600-
NORTHERN IDAHO


CITY           SKY/WX    TMP DP  RH WIND       PRES   REMARKS
LEWISTON       PTCLDY    47  26  44 CALM      29.87R
LOWELL         NOT AVBL
COEUR D`ALENE  MOCLDY    39  28  65 NW3       29.79R
MULLAN PASS    CLOUDY    27  25  92 VRB6      29.72F WCI  20
$$



USA.gov is the U.S. government's official web portal to all federal, state and local government web resources and services.